Weather History for Dalton, GA

Change the Weather History Date:

Wednesday, December 26, 2012

  Actual Average Record
Temperature  
Mean Temperature 43 °F -  
Max Temperature 53 °F 46 °F 73 °F (1955)
Min Temperature 33 °F 28 °F -4 °F (1983)
Degree Days  
Heating Degree Days 22    
Moisture  
Dew Point 39 °F    
Average Humidity 88    
Maximum Humidity 100    
Minimum Humidity 75    
Precipitation  
Precipitation 0.02 in - - ()
Sea Level Pressure  
Sea Level Pressure 29.70 in    
Wind  
Wind Speed 11 mph (WSW)    
Max Wind Speed 25 mph    
Max Gust Speed 34 mph    
Visibility 10 miles    
Events Rain    
Averages and records for this station are not official NWS values.
T = Trace of Precipitation, MM = Missing Value Source: NWS Daily Summary

Daily Weather History Graph

Daily Weather History Graph

Search for Another Location

Airport:

Trip Planner

Search our weather history database for the weather conditions in past years. The results will help you decide how hot, cold, wet, or windy it might be!

Date:

Astronomy

Dec. 26, 2012 Rise Set
Actual Time 7:45 AM EST 5:35 PM EST
Civil Twilight 7:17 AM EST 6:03 PM EST
Nautical Twilight 6:45 AM EST 6:35 PM EST
Astronomical Twilight 6:14 AM EST 7:05 PM EST
Moon 4:27 PM EST (12/26) 6:09 AM EST (12/26)
Length of Visible Light 10h 46m
Length of Day
9h 50m
Waxing Gibbous, 97% of the Moon is Illuminated
Dec 26
Waxing Gibbous
Dec 28
Full
Jan 4
Last Quarter
Jan 11
New
Jan 18
First Quarter

Hourly Weather History & Observations

Time (EST) Temp. Windchill Dew Point Humidity Pressure Visibility Wind Dir Wind Speed Gust Speed Precip Events Conditions
12:15 AM 48.2 °F - 48.2 °F 100% 29.68 in 10.0 mi ESE 10.4 mph - N/A Rain Light Rain
12:35 AM 50.0 °F - 50.0 °F 100% 29.66 in 7.0 mi SE 9.2 mph - 0.01 in Rain Rain
12:55 AM 50.0 °F - 50.0 °F 100% 29.63 in 10.0 mi ESE 13.8 mph 25.3 mph 0.01 in Rain Light Rain
1:15 AM 50.0 °F - 50.0 °F 100% 29.59 in 5.0 mi SE 11.5 mph 25.3 mph N/A Rain Rain
1:35 AM 50.0 °F - 50.0 °F 100% 29.57 in 10.0 mi SE 9.2 mph 17.3 mph N/A Rain Light Rain
1:55 AM 50.0 °F - 50.0 °F 100% 29.55 in 7.0 mi SE 13.8 mph 23.0 mph N/A Rain Rain
2:15 AM 50.0 °F - 50.0 °F 100% 29.53 in 10.0 mi South 4.6 mph 17.3 mph N/A Rain Light Rain
2:35 AM 51.8 °F - 50.0 °F 94% 29.52 in 10.0 mi SE 17.3 mph 24.2 mph N/A Rain Rain
2:55 AM 51.8 °F - 51.8 °F 100% 29.51 in 7.0 mi SE 15.0 mph 20.7 mph N/A   Drizzle
3:15 AM 53.6 °F - 51.8 °F 94% 29.47 in 10.0 mi SE 23.0 mph 34.5 mph N/A   Mostly Cloudy
3:35 AM 53.6 °F - 51.8 °F 94% 29.47 in 10.0 mi SE 25.3 mph 33.4 mph N/A   Mostly Cloudy
3:55 AM 53.6 °F - 51.8 °F 94% 29.48 in 10.0 mi South 10.4 mph 24.2 mph N/A   Overcast
4:15 AM 53.6 °F - 50.0 °F 88% 29.49 in 10.0 mi SSW 9.2 mph 26.5 mph N/A   Overcast
4:35 AM 53.6 °F - 51.8 °F 94% 29.45 in 10.0 mi SE 16.1 mph 24.2 mph N/A   Overcast
4:55 AM 53.6 °F - 51.8 °F 94% 29.44 in 10.0 mi SE 16.1 mph 24.2 mph N/A   Overcast
5:15 AM 53.6 °F - 51.8 °F 94% 29.43 in 10.0 mi SE 13.8 mph - N/A   Overcast
5:35 AM 53.6 °F - 53.6 °F 100% 29.45 in 5.0 mi SSE 9.2 mph 17.3 mph N/A Rain Light Rain
5:55 AM 53.6 °F - 51.8 °F 94% 29.45 in 10.0 mi South 5.8 mph - N/A   Scattered Clouds
6:15 AM 53.6 °F - 51.8 °F 94% 29.45 in 10.0 mi SSW 6.9 mph - N/A   Clear
6:35 AM 53.6 °F - 51.8 °F 94% 29.45 in 10.0 mi SSW 4.6 mph - N/A   Clear
7:15 AM 51.8 °F - 48.2 °F 88% 29.48 in 10.0 mi WSW 6.9 mph - N/A   Overcast
7:35 AM 50.0 °F - 44.6 °F 82% 29.49 in 10.0 mi SW 10.4 mph 17.3 mph N/A   Overcast
7:55 AM 50.0 °F - 42.8 °F 76% 29.50 in 10.0 mi SSW 8.1 mph - N/A   Mostly Cloudy
8:15 AM 48.2 °F - 42.8 °F 82% 29.51 in 10.0 mi SW 9.2 mph - N/A   Overcast
8:35 AM 48.2 °F - 42.8 °F 82% 29.53 in 10.0 mi SW 9.2 mph - N/A   Overcast
8:55 AM 44.6 °F 38.4 °F 41.0 °F 87% 29.55 in 7.0 mi SW 12.7 mph 25.3 mph 0.01 in Rain Light Rain
9:15 AM 44.6 °F 37.8 °F 37.4 °F 76% 29.57 in 10.0 mi SSW 15.0 mph 23.0 mph N/A   Overcast
9:35 AM 42.8 °F 37.0 °F 35.6 °F 76% 29.58 in 10.0 mi SSW 10.4 mph 20.7 mph N/A   Mostly Cloudy
9:55 AM 42.8 °F 35.1 °F 35.6 °F 76% 29.60 in 10.0 mi SW 16.1 mph 26.5 mph N/A   Mostly Cloudy
10:15 AM 42.8 °F 36.6 °F 35.6 °F 76% 29.62 in 10.0 mi SW 11.5 mph 19.6 mph N/A   Overcast
10:35 AM 41.0 °F 34.3 °F 35.6 °F 81% 29.63 in 10.0 mi SW 11.5 mph 17.3 mph N/A   Light Drizzle
10:55 AM 41.0 °F 35.2 °F 35.6 °F 81% 29.65 in 10.0 mi SW 9.2 mph 16.1 mph N/A   Overcast
11:15 AM 41.0 °F 33.9 °F 35.6 °F 81% 29.66 in 10.0 mi SW 12.7 mph 18.4 mph N/A   Overcast
11:35 AM 41.0 °F 33.9 °F 33.8 °F 76% 29.66 in 10.0 mi SW 12.7 mph 19.6 mph N/A   Overcast
11:55 AM 41.0 °F 34.7 °F 33.8 °F 76% 29.67 in 10.0 mi SW 10.4 mph 18.4 mph N/A   Overcast
12:15 PM 39.2 °F 32.0 °F 33.8 °F 81% 29.67 in 10.0 mi WSW 11.5 mph 18.4 mph N/A   Overcast
12:35 PM 41.0 °F 36.4 °F 35.6 °F 81% 29.67 in 10.0 mi SSW 6.9 mph - N/A   Overcast
12:55 PM 39.2 °F 33.6 °F 35.6 °F 87% 29.67 in 10.0 mi SW 8.1 mph - N/A   Overcast
1:15 PM 39.2 °F 32.5 °F 35.6 °F 87% 29.67 in 10.0 mi SW 10.4 mph - N/A   Overcast
1:35 PM 39.2 °F 33.6 °F 35.6 °F 87% 29.67 in 10.0 mi WSW 8.1 mph - N/A   Overcast
1:55 PM 41.0 °F 35.8 °F 33.8 °F 76% 29.68 in 10.0 mi West 8.1 mph 17.3 mph N/A   Overcast
2:15 PM 39.2 °F 33.0 °F 33.8 °F 81% 29.70 in 10.0 mi West 9.2 mph - N/A   Overcast
2:35 PM 39.2 °F 34.2 °F 32.0 °F 75% 29.72 in 10.0 mi WNW 6.9 mph 19.6 mph N/A   Overcast
2:55 PM 39.2 °F 35.0 °F 32.0 °F 75% 29.72 in 10.0 mi West 5.8 mph 17.3 mph N/A   Overcast
3:15 PM 37.4 °F 30.3 °F 32.0 °F 81% 29.75 in 10.0 mi West 10.4 mph - N/A   Overcast
3:35 PM 37.4 °F 30.3 °F 32.0 °F 81% 29.76 in 10.0 mi WNW 10.4 mph 18.4 mph N/A   Overcast
3:55 PM 37.4 °F 32.1 °F 32.0 °F 81% 29.77 in 10.0 mi WNW 6.9 mph 18.4 mph N/A   Overcast
4:15 PM 35.6 °F 28.0 °F 32.0 °F 87% 29.79 in 10.0 mi WNW 10.4 mph - N/A   Overcast
4:35 PM 35.6 °F 28.6 °F 32.0 °F 87% 29.80 in 10.0 mi West 9.2 mph 20.7 mph N/A   Overcast
4:55 PM 35.6 °F 28.0 °F 32.0 °F 87% 29.82 in 10.0 mi WNW 10.4 mph 17.3 mph N/A   Overcast
5:15 PM 35.6 °F 28.6 °F 32.0 °F 87% 29.83 in 10.0 mi West 9.2 mph - N/A   Overcast
5:35 PM 35.6 °F 28.6 °F 32.0 °F 87% 29.84 in 10.0 mi WNW 9.2 mph - N/A   Overcast
5:55 PM 35.6 °F 29.2 °F 32.0 °F 87% 29.85 in 10.0 mi WNW 8.1 mph - N/A   Overcast
6:15 PM 35.6 °F 28.6 °F 30.2 °F 81% 29.87 in 10.0 mi WNW 9.2 mph 19.6 mph N/A   Overcast
6:35 PM 35.6 °F 27.5 °F 32.0 °F 87% 29.89 in 10.0 mi WNW 11.5 mph 16.1 mph N/A   Overcast
6:55 PM 35.6 °F 28.6 °F 32.0 °F 87% 29.90 in 10.0 mi WNW 9.2 mph 17.3 mph N/A   Overcast
7:15 PM 35.6 °F 25.9 °F 32.0 °F 87% 29.92 in 10.0 mi NW 16.1 mph 24.2 mph N/A   Overcast
7:35 PM 33.8 °F 24.8 °F 32.0 °F 93% 29.93 in 10.0 mi NW 12.7 mph 20.7 mph N/A   Overcast
8:15 PM 33.8 °F 26.4 °F 32.0 °F 93% 29.95 in 10.0 mi WNW 9.2 mph 20.7 mph N/A   Overcast
8:35 PM 33.8 °F 24.3 °F 32.0 °F 93% 29.96 in 10.0 mi NW 13.8 mph 25.3 mph N/A   Overcast
8:55 PM 33.8 °F 26.4 °F 32.0 °F 93% 29.95 in 10.0 mi NW 9.2 mph 17.3 mph N/A   Overcast
9:15 PM 33.8 °F 27.7 °F 32.0 °F 93% 29.97 in 10.0 mi WNW 6.9 mph 17.3 mph N/A   Overcast
9:35 PM 33.8 °F 26.4 °F 32.0 °F 93% 29.99 in 10.0 mi WNW 9.2 mph - N/A   Overcast
9:55 PM 33.8 °F 27.0 °F 32.0 °F 93% 29.99 in 10.0 mi WNW 8.1 mph 19.6 mph N/A   Overcast
10:15 PM 33.8 °F 25.3 °F 32.0 °F 93% 29.99 in 10.0 mi WNW 11.5 mph - N/A   Overcast
10:35 PM 33.8 °F 27.0 °F 32.0 °F 93% 30.01 in 10.0 mi WNW 8.1 mph - N/A   Overcast
10:55 PM 33.8 °F 28.6 °F 32.0 °F 93% 30.00 in 10.0 mi NW 5.8 mph - N/A   Overcast
11:15 PM 33.8 °F 27.7 °F 32.0 °F 93% 30.00 in 10.0 mi NW 6.9 mph - N/A   Overcast
11:35 PM 33.8 °F 25.8 °F 32.0 °F 93% 30.02 in 10.0 mi WNW 10.4 mph - N/A   Overcast
11:55 PM 33.8 °F 25.8 °F 32.0 °F 93% 30.01 in 10.0 mi WNW 10.4 mph - N/A   Overcast